Location: Belmont
(13.0833°N, 59.6000°W)
Time: 19:58:08
(UTC+00:00)

ISS - Pass Details

Date: 17 September 2019
Orbit: 411 x 421 km, 51.6° (Epoch: 20 October)

Event Time Altitude Azimuth Distance (km) Brightness Sun altitude
Rises 23:02:41 0° 245° (WSW) 2,332 1.1 -16.5°
Reaches altitude 10° 23:05:16 10° 266° (W) 1,469 0.3 -17.1°
Maximum altitude 23:07:32 17° 310° (NW) 1,106 -0.9 -17.7°
Drops below altitude 10° 23:09:49 10° 354° (N) 1,468 -0.9 -18.2°
Enters shadow 23:12:07 - 14° (NNE) 2,226 -0.1 -18.8°
